Clarksburg, WV

12:56 AM EDT on April 26, 2017 (GMT -0400)
Benedum

Weather History for KCKB - November, 2012

Change the Weather History Date:

Wednesday, November 14, 2012

  Actual Average Record
Temperature  
Mean Temperature 34 °F -  
Max Temperature 44 °F 51 °F 77 °F (1955)
Min Temperature 23 °F 30 °F 12 °F (1986)
Degree Days  
Heating Degree Days 32    
Moisture  
Dew Point 24 °F    
Average Humidity 71    
Maximum Humidity 89    
Minimum Humidity 49    
Precipitation  
Precipitation 0.00 in - - ()
Sea Level Pressure  
Sea Level Pressure 30.46 in    
Wind  
Wind Speed 3 mph (NNE)    
Max Wind Speed 10 mph    
Max Gust Speed -    
Visibility 10 miles    
Events      
Averages and records for this station are not official NWS values.
T = Trace of Precipitation, MM = Missing Value Source: NWS Daily Summary

Daily Weather History Graph

Daily Weather History Graph

Search for Another Location

Airport or City:

Trip Planner

Search our weather history database for the weather conditions in past years. The results will help you decide how hot, cold, wet, or windy it might be!

Date:

Astronomy

Nov. 14, 2012 Rise Set
Actual Time 7:03 AM EST 5:06 PM EST
Civil Twilight 6:35 AM EST 5:35 PM EST
Nautical Twilight 6:02 AM EST 6:07 PM EST
Astronomical Twilight 5:31 AM EST 6:39 PM EST
Moon 7:51 AM EST (11/14) 5:54 PM EST (11/14)
Length of Visible Light 10h 59m
Length of Day
10h 02m
New Moon, 1% of the Moon is Illuminated
Nov 14
New Moon
Nov 20
First Quarter
Nov 28
Full
Dec 6
Last Quarter
Dec 13
New

Hourly Weather History & Observations

Time (EST) Temp. Windchill Dew Point Humidity Pressure Visibility Wind Dir Wind Speed Gust Speed Precip Events Conditions
12:53 AM 28.9 °F - 24.1 °F 82% 30.51 in 10.0 mi Calm Calm - N/A   Clear
1:53 AM 27.0 °F - 24.1 °F 89% 30.51 in 10.0 mi Calm Calm - N/A   Clear
2:53 AM 25.0 °F - 21.9 °F 88% 30.50 in 10.0 mi Calm Calm - N/A   Clear
3:53 AM 25.0 °F - 21.0 °F 85% 30.49 in 10.0 mi Calm Calm - N/A   Clear
4:53 AM 25.0 °F - 21.9 °F 88% 30.52 in 9.0 mi Calm Calm - N/A   Clear
5:53 AM 24.1 °F 19.7 °F 21.0 °F 88% 30.52 in 10.0 mi ENE 3.5 mph - N/A   Clear
6:53 AM 23.0 °F - 19.9 °F 88% 30.53 in 9.0 mi Calm Calm - N/A   Clear
7:53 AM 27.0 °F - 23.0 °F 85% 30.53 in 9.0 mi Calm Calm - N/A   Clear
8:53 AM 30.9 °F 25.2 °F 25.0 °F 79% 30.52 in 10.0 mi NNE 5.8 mph - N/A   Clear
9:53 AM 35.1 °F 27.9 °F 25.0 °F 67% 30.52 in 10.0 mi ENE 9.2 mph - N/A   Clear
10:53 AM 37.9 °F 31.5 °F 24.1 °F 57% 30.52 in 10.0 mi ENE 9.2 mph - N/A   Clear
11:53 AM 39.9 °F 35.8 °F 25.0 °F 55% 30.49 in 10.0 mi Variable 5.8 mph - N/A   Clear
12:53 PM 42.1 °F 39.2 °F 26.1 °F 53% 30.46 in 10.0 mi Variable 4.6 mph - N/A   Clear
1:53 PM 44.1 °F 39.0 °F 26.1 °F 49% 30.44 in 10.0 mi NNW 9.2 mph - N/A   Clear
2:53 PM 44.1 °F 39.5 °F 26.1 °F 49% 30.43 in 10.0 mi North 8.1 mph - N/A   Clear
3:53 PM 43.0 °F 37.2 °F 26.1 °F 51% 30.41 in 10.0 mi North 10.4 mph - N/A   Clear
4:53 PM 39.0 °F 34.8 °F 26.1 °F 60% 30.41 in 10.0 mi NNE 5.8 mph - N/A   Clear
5:53 PM 37.9 °F 32.7 °F 26.1 °F 62% 30.41 in 10.0 mi North 6.9 mph - N/A   Clear
6:53 PM 35.1 °F 29.3 °F 25.0 °F 67% 30.41 in 10.0 mi NNE 6.9 mph - N/A   Clear
7:53 PM 34.0 °F 29.8 °F 25.0 °F 70% 30.42 in 10.0 mi North 4.6 mph - N/A   Clear
8:53 PM 32.0 °F - 25.0 °F 75% 30.42 in 10.0 mi Calm Calm - N/A   Clear
9:53 PM 32.0 °F - 25.0 °F 75% 30.39 in 10.0 mi Calm Calm - N/A   Clear
10:53 PM 32.0 °F - 24.1 °F 73% 30.38 in 10.0 mi Calm Calm - N/A   Clear
11:53 PM 30.9 °F 27.5 °F 25.0 °F 79% 30.36 in 10.0 mi NNE 3.5 mph - N/A   Clear